ONEWEB-0434, 51631

Orbit data source: Space-Track

ONEWEB-0434, 51631 is a payload satellite owned by One Web (NAA) (UK) in LEO that was launched on Thu, 10 Feb 2022 UTC via a SOYUZ-ST-B launch vehicle from the French Guiana (FRGUI). Payload-class satellites include a variety of spacecraft equipped with specific instruments for various scientific and technological missions. These include communications satellites like Starlink; space stations such as the ISS; scientific satellites like the Hubble; Earth observation satellites from companies like Planet Labs, Umbra, and HawkEye 360; GPS; miniature CubeSats for education and research; and military/defense satellites.

Loading next visibility...
Identifier
51631, 2022-012K
Orbit
LEO
Country
Flag of UKUK
Related business
Manufacturer
One Web
Mission
Operational Commercial Communications
Bus & Motor
ARROW, Unknown motor
Mass
148 kg wet, ~140 kg dry
Launch date (UTC)
2022-02-10 (4 years ago)
Launch vehicle
SOYUZ-ST-B
Launch site
French Guiana (FRGUI)
Object type
Payload
Rocket body
Debris
Shape & HBR
Trap Box + 2 Pan, 6.7 m
Radar Cross Section
3.464 m², Large (>1 m²)

Expand to show TLE details & history
Last TLE update: 2 days ago

TLE from 2 days ago
0 ONEWEB-0434
1 51631U 22012K   26171.31852375 -.00000076  00000-0 -25407-3 0  9990
2 51631  87.8830  35.6683 0002263  70.7096 289.4276 13.10220043209730
Epoch: 2026-06-20T07:38Z
TLE epoch observation values (Epoch: 2026-06-20T07:38:40.451Z)
Latitude
0.00002°
Longitude
12.46489°
Altitude
1,224.623 km
Speed
7.242 km/s
True Right ascension
02h 22m 40s
True Declination
0° 00' 00"
Sunlit
Object was in daylight at epoch
Visualization orbit readout
Latitude
Unknown
Longitude
Unknown
Altitude
Unknown
Speed
Unknown
Apparent Right ascension
Unknown
Apparent Declination
Unknown
Sunlit
N/A
Visualization observer readout
Local Sidereal Time
21:29:17
Azimuth
Unknown
Elevation
Unknown
Doppler factor
Unknown
Orbital elements
Apogee altitude
1,221.147 km
Perigee altitude
1,217.709 km
Semi-major axis
7,597.565 km
Eccentricity
0.00023
Inclination
87.883°
RAAN
35.6683°
Arg. of periapsis
70.7096°
True anomaly
289.40314°
Mean anomaly
289.4276°
Eccentric anomaly
289.41537°
Mean motion
3.27742 °/min
Orbital period
109.84 mins
BSTAR
-0.00025407
Loading maneuver chart data...
Computing Atmospheric mass density...
Loading historical data...
Loading historical data...
Loading historical data...
Loading historical data...
Loading historical data...
Loading historical data...
Loading historical data...

Documentation

Showing up to 5 results
|